Total_Precipitation_Accumulation
0.07 0.04 0.12 0.13 0.12 0.11 0.12 0.14 0.14 0.15 0.16 0.17 0.16 0.14 0.11 0.10 0.09 0.11 0.11 0.10 0.11 0.15 0.20 0.24 0.25 0.26 0.27 0.29 0.36 0.42 0.44 0.43 0.38 0.29 0.25 0.24 0.27 0.30 0.41 0.48 0.61 0.81 0.52
0.05 0.03 0.10 0.12 0.10 0.09 0.09 0.11 0.11 0.12 0.13 0.13 0.13 0.12 0.09 0.07 0.07 0.09 0.09 0.07 0.08 0.11 0.16 0.21 0.27 0.28 0.31 0.34 0.44 0.53 0.52 0.48 0.46 0.43 0.43 0.44 0.38 0.35 0.34 0.41 0.67 0.79 0.52
0.03 0.04 0.08 0.12 0.11 0.12 0.11 0.11 0.12 0.16 0.15 0.11 0.15 0.13 0.12 0.09 0.06 0.07 0.06 0.07 0.08 0.09 0.11 0.18 0.27 0.32 0.33 0.43 0.52 0.56 0.58 0.57 0.54 0.50 0.70 0.98 0.60 0.42 0.43 0.45 0.47 0.47 0.49
0.03 0.05 0.13 0.19 0.19 0.22 0.20 0.19 0.22 0.24 0.23 0.21 0.22 0.20 0.20 0.14 0.09 0.07 0.06 0.06 0.07 0.08 0.09 0.13 0.24 0.34 0.37 0.39 0.45 0.48 0.51 0.55 0.59 0.50 0.74 0.99 0.82 0.50 0.53 0.57 0.47 0.44 0.49
0.06 0.09 0.21 0.29 0.33 0.35 0.30 0.30 0.35 0.32 0.29 0.28 0.26 0.25 0.24 0.19 0.16 0.10 0.06 0.06 0.06 0.08 0.10 0.10 0.18 0.28 0.36 0.39 0.41 0.41 0.46 0.63 0.56 0.47 0.60 0.75 0.82 0.61 0.55 0.62 0.54 0.47 0.50
0.14 0.17 0.27 0.35 0.43 0.45 0.34 0.36 0.43 0.38 0.33 0.27 0.21 0.21 0.21 0.17 0.16 0.10 0.09 0.09 0.07 0.07 0.09 0.10 0.15 0.22 0.30 0.36 0.38 0.45 0.56 0.60 0.50 0.57 0.58 0.71 0.78 0.58 0.49 0.49 0.54 0.55 0.58
0.29 0.24 0.29 0.45 0.50 0.48 0.43 0.47 0.55 0.48 0.40 0.30 0.23 0.22 0.20 0.18 0.16 0.12 0.11 0.10 0.08 0.08 0.07 0.08 0.10 0.15 0.20 0.27 0.32 0.39 0.47 0.50 0.63 0.65 0.55 0.71 0.64 0.48 0.40 0.42 0.54 0.57 0.59
0.61 0.47 0.43 0.55 0.58 0.56 0.57 0.61 0.67 0.67 0.54 0.37 0.30 0.28 0.25 0.22 0.19 0.15 0.14 0.12 0.09 0.06 0.07 0.07 0.08 0.10 0.11 0.15 0.19 0.26 0.36 0.41 0.54 0.51 0.46 0.57 0.49 0.40 0.33 0.36 0.45 0.52 0.58
1.00 0.88 0.77 0.71 0.64 0.65 0.70 0.68 0.83 0.96 0.79 0.57 0.45 0.42 0.35 0.30 0.24 0.20 0.15 0.12 0.08 0.06 0.06 0.07 0.07 0.07 0.08 0.10 0.14 0.21 0.30 0.32 0.39 0.42 0.35 0.45 0.41 0.32 0.34 0.34 0.40 0.53 0.56
1.00 0.92 0.91 0.98 0.97 0.96 0.96 1.01 1.13 1.43 1.29 0.90 0.67 0.54 0.48 0.37 0.30 0.27 0.20 0.16 0.12 0.09 0.08 0.08 0.07 0.06 0.07 0.09 0.14 0.21 0.23 0.21 0.31 0.29 0.25 0.28 0.30 0.20 0.19 0.24 0.30 0.36 0.43
0.76 0.80 0.86 0.92 0.93 0.97 0.95 1.12 1.36 1.63 1.68 1.31 1.01 0.82 0.65 0.43 0.45 0.46 0.32 0.30 0.23 0.17 0.14 0.12 0.09 0.07 0.07 0.08 0.12 0.15 0.13 0.14 0.32 0.29 0.26 0.23 0.19 0.10 0.08 0.08 0.11 0.17 0.23
0.59 0.56 0.58 0.61 0.67 0.72 0.77 1.04 1.26 1.33 1.52 1.30 1.26 1.09 0.92 0.84 0.77 0.55 0.47 0.48 0.44 0.33 0.23 0.16 0.13 0.08 0.05 0.05 0.07 0.07 0.07 0.11 0.23 0.23 0.18 0.23 0.22 0.08 0.04 0.05 0.05 0.07 0.10
0.54 0.51 0.45 0.46 0.48 0.54 0.67 0.88 1.10 1.23 1.40 1.41 1.38 1.32 1.30 1.20 0.83 0.62 0.66 0.64 0.57 0.48 0.36 0.31 0.21 0.12 0.07 0.06 0.09 0.04 0.03 0.08 0.16 0.15 0.17 0.23 0.25 0.14 0.06 0.04 0.04 0.05 0.06
0.49 0.56 0.49 0.37 0.37 0.39 0.47 0.66 0.86 1.07 1.26 1.30 1.13 1.04 1.15 1.14 0.90 0.73 0.83 0.87 0.78 0.65 0.58 0.54 0.41 0.26 0.14 0.08 0.06 0.04 0.04 0.06 0.11 0.13 0.19 0.16 0.20 0.16 0.09 0.05 0.03 0.03 0.04
0.46 0.54 0.56 0.48 0.40 0.39 0.44 0.51 0.58 0.87 1.05 1.20 1.24 1.01 1.13 1.14 1.03 0.86 0.77 0.90 0.84 0.77 0.71 0.65 0.53 0.39 0.25 0.14 0.13 0.09 0.08 0.05 0.05 0.07 0.15 0.11 0.14 0.17 0.13 0.09 0.08 0.04 0.04
0.40 0.47 0.52 0.55 0.54 0.50 0.49 0.51 0.51 0.56 0.67 0.79 0.75 0.71 0.89 0.98 0.93 0.90 0.74 0.74 0.80 0.86 0.96 0.93 0.69 0.52 0.37 0.23 0.16 0.13 0.07 0.04 0.03 0.03 0.09 0.08 0.09 0.14 0.16 0.17 0.15 0.10 0.08
0.39 0.42 0.47 0.54 0.61 0.62 0.63 0.71 0.63 0.59 0.64 0.63 0.59 0.60 0.69 0.78 0.79 0.89 0.80 0.72 0.72 0.89 1.00 1.01 0.86 0.71 0.49 0.31 0.19 0.13 0.08 0.04 0.03 0.03 0.03 0.06 0.07 0.13 0.21 0.27 0.27 0.23 0.18
0.37 0.37 0.39 0.43 0.48 0.53 0.60 0.68 0.72 0.72 0.75 0.71 0.72 0.67 0.62 0.74 0.85 0.94 0.91 0.79 0.76 0.90 1.01 1.05 1.01 0.91 0.69 0.49 0.32 0.20 0.12 0.09 0.05 0.03 0.03 0.03 0.04 0.08 0.16 0.22 0.32 0.39 0.35
0.35 0.32 0.31 0.32 0.32 0.35 0.42 0.53 0.65 0.71 0.79 0.85 0.85 0.82 0.78 0.82 0.84 0.94 1.04 1.02 1.00 1.02 1.03 1.03 0.97 0.88 0.76 0.60 0.48 0.36 0.22 0.14 0.11 0.06 0.04 0.05 0.04 0.04 0.07 0.07 0.13 0.15 0.24
0.29 0.30 0.30 0.31 0.30 0.27 0.31 0.44 0.55 0.61 0.69 0.85 0.91 0.97 1.22 1.29 1.08 1.01 1.07 1.06 1.06 1.09 1.09 1.17 1.21 1.04 0.84 0.73 0.63 0.49 0.34 0.21 0.14 0.10 0.07 0.06 0.05 0.06 0.05 0.05 0.06 0.04 0.09
0.15 0.14 0.18 0.24 0.31 0.29 0.26 0.32 0.43 0.52 0.65 0.78 0.93 1.01 1.23 1.30 1.21 1.22 1.20 1.16 1.11 1.07 1.11 1.28 1.44 1.30 1.07 0.88 0.84 0.70 0.51 0.35 0.24 0.18 0.12 0.09 0.08 0.08 0.09 0.11 0.09 0.06 0.04
0.05 0.07 0.10 0.15 0.24 0.32 0.35 0.40 0.53 0.70 0.82 0.90 1.02 1.09 1.21 1.21 1.18 1.11 1.24 1.32 1.24 1.26 1.30 1.41 1.52 1.52 1.32 1.12 1.17 1.28 0.98 0.71 0.40 0.22 0.16 0.12 0.10 0.08 0.07 0.10 0.11 0.06 0.03
0.03 0.05 0.11 0.19 0.33 0.50 0.66 0.88 1.12 1.40 1.51 1.40 1.25 1.31 1.45 1.51 1.45 1.35 1.42 1.54 1.44 1.43 1.42 1.46 1.45 1.64 1.66 1.46 1.38 1.58 1.25 1.02 0.90 0.44 0.24 0.20 0.19 0.17 0.13 0.09 0.10 0.09 0.06
0.11 0.17 0.28 0.40 0.57 0.74 0.95 1.17 1.42 1.66 1.82 1.84 1.85 1.88 1.85 1.80 1.67 1.55 1.54 1.56 1.56 1.59 1.49 1.39 1.47 1.71 1.98 1.88 1.70 1.48 1.22 1.03 1.08 0.89 0.54 0.33 0.30 0.25 0.20 0.15 0.13 0.12 0.10
0.28 0.41 0.53 0.76 0.93 1.06 1.13 1.23 1.45 1.56 1.63 1.74 1.88 1.93 1.91 1.82 1.69 1.55 1.49 1.49 1.54 1.61 1.58 1.61 1.72 1.91 2.07 2.16 2.03 1.75 1.44 1.20 0.90 0.88 0.87 0.69 0.49 0.33 0.26 0.22 0.21 0.19 0.16
0.57 0.81 0.96 1.07 1.16 1.16 1.14 1.16 1.30 1.43 1.52 1.60 1.73 1.79 1.72 1.58 1.52 1.49 1.47 1.41 1.34 1.40 1.49 1.64 1.86 1.94 2.04 2.17 2.12 1.82 1.58 1.38 1.18 1.06 0.90 0.88 0.86 0.60 0.45 0.36 0.29 0.26 0.24